Date,TemperatureHighF,TemperatureAvgF,TemperatureLowF,DewpointHighF,DewpointAvgF,DewpointLowF,HumidityHigh,HumidityAvg,HumidityLow,PressureMaxIn,PressureMinIn,WindSpeedMaxMPH,WindSpeedAvgMPH,GustSpeedMaxMPH,PrecipitationSumIn
2013-1-1,15.2,9.3,3.6,7.0,3.5,0.0,84,78,67,30.27,30.18,5,2,8,0.00
2013-1-2,26.3,20.2,10.6,21.0,13.1,4.0,84,74,52,30.20,30.07,5,1,9,0.00
2013-1-3,26.8,22.7,12.9,22.0,18.7,9.0,89,84,79,30.25,30.07,9,4,13,0.00
2013-1-4,29.4,20.5,11.3,22.0,15.6,7.0,87,81,71,30.21,30.10,11,4,17,0.00
2013-1-5,35.5,27.6,14.7,34.0,24.8,13.0,95,89,76,30.25,29.87,6,1,14,0.09
2013-1-6,35.3,26.2,17.5,33.0,22.0,15.0,91,84,79,30.30,29.87,13,5,17,0.02
2013-1-7,39.8,28.2,13.7,28.0,21.7,12.0,91,77,58,30.29,30.05,13,2,17,0.01
2013-1-8,40.4,33.5,23.9,33.0,29.0,23.0,95,84,71,30.11,29.94,5,1,11,0.05
2013-1-9,40.3,35.0,25.2,33.0,28.3,23.0,91,77,64,30.46,29.92,14,4,21,0.00
2013-1-10,42.3,31.3,20.0,36.0,27.8,18.0,96,87,68,30.49,29.87,6,1,10,0.40
2013-1-11,48.5,42.3,36.8,47.0,41.4,36.0,98,96,92,29.86,29.59,9,1,14,0.10
2013-1-12,52.4,37.1,24.9,47.0,31.5,20.0,93,80,71,29.99,29.60,13,4,23,0.01
2013-1-13,24.8,11.5,14.3,22.0,-35.4,-99.9,92,45,74,30.22,29.91,9,-439,12,0.00
2013-1-14,22.9,15.5,8.6,11.0,8.7,5.0,84,75,60,30.48,30.24,5,2,8,0.00
2013-1-15,29.3,19.7,9.0,17.0,12.8,7.0,92,76,55,30.45,30.11,6,1,12,0.00
2013-1-16,34.7,26.7,17.5,31.0,20.5,11.0,88,78,63,30.11,29.79,13,3,18,0.00
2013-1-17,30.1,21.2,13.3,22.0,9.8,5.0,88,62,52,30.41,30.07,11,3,15,0.00
2013-1-18,43.1,31.6,13.2,34.0,24.7,10.0,89,76,66,30.44,29.82,9,3,21,0.01
2013-1-19,44.7,37.6,19.1,36.0,29.3,7.0,86,73,35,29.94,29.64,23,6,43,0.00
2013-1-20,18.5,12.9,8.9,8.0,1.8,0.0,69,62,53,30.31,29.96,17,6,26,0.00
2013-1-21,12.3,5.4,-0.6,5.0,-3.8,-9.0,84,66,57,30.32,30.15,19,8,22,0.00
2013-1-22,8.7,2.0,-4.7,-2.0,-6.5,-11.0,77,68,58,30.41,30.32,10,4,14,0.00
2013-1-23,18.7,13.0,6.5,15.0,5.8,-2.0,88,73,62,30.44,30.11,19,4,26,0.00
2013-1-24,19.2,9.5,1.1,11.0,1.0,-5.0,75,68,58,30.69,30.39,8,2,12,0.00
2013-1-25,27.2,21.1,17.0,19.0,13.6,5.0,85,73,55,30.37,29.95,10,4,18,0.00
2013-1-26,25.7,18.7,9.5,15.0,9.4,5.0,83,68,50,30.41,30.21,6,2,13,0.00
2013-1-27,34.9,29.1,24.0,34.0,23.9,14.0,96,81,65,30.36,29.86,5,1,12,0.01
2013-1-28,42.8,37.8,33.4,38.0,35.3,31.0,97,91,77,29.93,29.77,8,2,11,0.34
2013-1-29,59.2,45.1,36.1,57.0,44.1,35.0,99,96,93,29.80,29.45,5,2,16,1.64
2013-1-30,36.5,29.1,17.1,36.0,27.5,13.0,97,93,83,29.61,29.27,10,4,16,0.12
2013-1-31,17.0,10.1,3.2,13.0,-7.1,-99.9,88,69,70,30.18,29.61,14,-118,20,0.00